period_start,C,m1,H,J0,J1,J2,J3,J4,J5,JA,JB,JC,JD,JJ,JK,JN,#
2016-10-17 00:00:55,0.02,0.47,0.00,24.73,28.16,31.17,14.41,43.69,1022.00,2029.85,3336.63,3003.07,3397.49,599.73,595.43,9.85,0000 0000 0000 0000 000000
2016-10-17 00:05:56,-0.01,0.47,0.00,24.77,28.16,31.16,14.41,43.74,1022.00,2029.60,3336.02,3003.00,3397.01,599.93,595.57,9.90,0000 0000 0000 0000 000000
2016-10-17 00:10:57,0.03,0.47,0.00,24.75,28.17,31.15,14.38,43.68,1022.00,2029.59,3335.91,3002.63,3396.74,599.93,595.69,9.95,0000 0000 0000 0000 000000
2016-10-17 00:15:59,0.00,0.47,0.00,24.72,28.17,31.17,14.39,43.76,1021.99,2029.39,3335.12,3002.04,3396.06,599.99,595.79,10.00,0000 0000 0000 0000 000000
2016-10-17 00:21:00,0.01,0.47,0.00,24.74,28.17,31.14,14.37,43.76,1022.00,2029.30,3334.98,3001.97,3395.93,599.85,595.54,10.05,0000 0000 0000 0000 000000
2016-10-17 00:26:01,0.03,0.47,0.00,24.73,28.17,31.15,14.36,43.66,1021.99,2029.27,3334.65,3001.70,3395.29,599.65,595.42,10.10,0000 0000 0000 0000 000000
2016-10-17 00:31:02,0.02,0.47,0.00,24.73,28.17,31.16,14.44,43.77,1021.99,2029.28,3334.05,3001.07,3395.01,600.25,595.92,10.15,0000 0000 0000 0000 000000
2016-10-17 00:36:04,0.01,0.47,0.00,24.76,28.17,31.14,14.41,43.63,1022.01,2029.18,3333.97,3001.00,3394.86,600.21,595.84,10.20,0000 0000 0000 0000 000000
2016-10-17 00:41:05,0.02,0.47,0.00,24.70,28.17,31.15,14.36,43.69,1022.00,2029.14,3333.23,3000.88,3394.11,599.93,595.63,10.25,0000 0000 0000 0000 000000
2016-10-17 00:46:07,0.02,0.47,0.00,24.69,28.17,31.17,14.40,43.74,1022.01,2029.21,3333.02,3000.32,3394.00,599.76,595.54,10.30,0000 0000 0000 0000 000000
2016-10-17 00:51:08,0.00,0.47,0.00,24.73,28.17,31.16,14.45,43.67,1022.01,2029.14,3332.98,3000.02,3393.78,600.22,596.00,10.35,0000 0000 0000 0000 000000
2016-10-17 00:56:10,0.01,0.47,0.00,24.76,28.17,31.19,14.42,43.65,1022.00,2029.06,3332.45,2999.99,3393.10,600.11,595.98,10.40,0000 0000 0000 0000 000000
2016-10-17 01:01:11,0.01,0.47,0.00,24.74,28.18,31.18,14.40,43.65,1021.99,2029.06,3332.01,2999.84,3392.99,600.18,595.76,10.45,0000 0000 0000 0000 000000
2016-10-17 01:06:12,0.03,0.47,0.00,24.70,28.19,31.19,14.45,43.63,1021.99,2029.06,3331.79,2999.13,3392.57,600.54,596.32,10.50,0000 0000 0000 0000 000000
2016-10-17 01:11:13,0.01,0.48,0.00,24.73,28.20,31.19,14.47,43.67,1021.99,2029.03,3331.05,2998.98,3392.02,600.05,595.72,10.55,0000 0000 0000 0000 000000
2016-10-17 01:16:14,0.02,0.48,0.00,24.77,28.20,31.19,14.42,43.67,1021.99,2029.02,3330.87,2998.53,3391.80,600.31,595.99,10.60,0000 0000 0000 0000 000000
2016-10-17 01:21:16,0.02,0.48,0.00,24.75,28.20,31.18,14.42,43.57,1021.99,2029.02,3330.34,2998.06,3391.21,599.75,595.42,10.65,0000 0000 0000 0000 000000
2016-10-17 01:26:17,0.00,0.48,0.00,24.74,28.20,31.21,14.39,43.76,1021.99,2029.00,3330.01,2998.00,3391.00,599.61,595.41,10.70,0000 0000 0000 0000 000000
2016-10-17 01:31:18,0.01,0.48,0.00,24.71,28.20,31.20,14.43,43.68,1021.99,2029.00,3329.71,2997.89,3390.97,599.93,595.58,10.75,0000 0000 0000 0000 000000
2016-10-17 01:36:19,0.03,0.48,0.00,24.74,28.20,31.19,14.39,43.58,1021.99,2029.00,3329.03,2997.25,3390.43,599.88,595.52,10.80,0000 0000 0000 0000 000000
2016-10-17 01:41:21,0.00,0.48,0.00,24.77,28.20,31.19,14.31,43.58,1021.99,2029.00,3328.97,2997.01,3390.01,599.70,595.32,10.85,0000 0000 0000 0000 000000
2016-10-17 01:46:22,0.01,0.48,0.00,24.72,28.20,31.21,14.45,43.64,1021.99,2029.00,3328.20,2996.99,3389.97,600.42,596.14,10.90,0000 0000 0000 0000 000000
2016-10-17 01:51:24,0.01,0.48,0.00,24.76,28.20,31.20,14.39,43.65,1021.99,2029.00,3327.99,2996.78,3389.52,599.83,595.44,10.95,0000 0000 0000 0000 000000
2016-10-17 01:56:25,0.01,0.48,0.00,24.77,28.20,31.20,14.45,43.69,1021.99,2029.00,3327.98,2996.41,3389.10,599.99,595.43,11.00,0000 0000 0000 0000 000000
2016-10-17 02:01:26,0.01,0.48,0.00,24.72,28.20,31.20,14.45,43.66,1021.99,2029.00,3327.62,2996.07,3389.01,600.21,595.89,11.05,0000 0000 0000 0000 000000
2016-10-17 02:06:27,0.00,0.49,0.00,24.74,28.20,31.20,14.41,43.67,1021.99,2029.00,3327.04,2996.00,3388.99,600.09,595.85,11.10,0000 0000 0000 0000 000000
2016-10-17 02:11:28,0.00,0.49,0.00,24.76,28.20,31.20,14.39,43.66,1021.99,2029.00,3327.00,2995.98,3388.85,599.76,595.30,11.15,0000 0000 0000 0000 000000
2016-10-17 02:16:29,0.01,0.49,0.00,24.76,28.20,31.19,14.43,43.67,1021.99,2029.00,3326.99,2995.97,3388.22,600.21,595.83,11.20,0000 0000 0000 0000 000000
2016-10-17 02:21:31,0.00,0.49,0.00,24.74,28.20,31.20,14.36,43.61,1021.99,2029.00,3326.88,2995.81,3388.03,599.86,595.60,11.25,0000 0000 0000 0000 000000
2016-10-17 02:26:32,0.02,0.49,0.00,24.74,28.20,31.22,14.39,43.58,1021.99,2029.00,3326.28,2995.24,3388.00,599.97,595.65,11.30,0000 0000 0000 0000 000000
2016-10-17 02:31:33,0.00,0.49,0.00,24.75,28.20,31.20,14.48,43.68,1021.99,2029.00,3326.01,2995.02,3387.99,600.10,595.65,11.35,0000 0000 0000 0000 000000
2016-10-17 02:36:35,0.00,0.49,0.00,24.74,28.20,31.19,14.43,43.66,1021.99,2029.00,3326.00,2995.00,3387.85,600.34,596.06,11.41,0000 0000 0000 0000 000000
2016-10-17 02:41:36,0.01,0.49,0.00,24.76,28.20,31.19,14.38,43.65,1021.99,2029.00,3325.96,2994.99,3387.32,599.84,595.49,11.46,0000 0000 0000 0000 000000
2016-10-17 02:46:38,0.01,0.49,0.00,24.71,28.19,31.21,14.39,43.63,1021.98,2029.00,3325.73,2994.96,3387.04,599.95,595.70,11.51,0000 0000 0000 0000 000000
2016-10-17 02:51:39,0.01,0.49,0.00,24.69,28.19,31.18,14.38,43.66,1021.99,2029.00,3325.27,2994.84,3387.00,600.18,595.95,11.56,0000 0000 0000 0000 000000
2016-10-17 02:56:40,0.01,0.49,0.00,24.70,28.19,31.18,14.35,43.68,1021.99,2029.00,3325.08,2994.56,3387.00,599.54,595.49,11.61,0000 0000 0000 0000 000000
2016-10-17 03:01:41,0.01,0.49,0.00,24.75,28.18,31.18,14.45,43.66,1021.99,2029.00,3325.00,2994.03,3386.91,599.87,595.53,11.66,0000 0000 0000 0000 000000
2016-10-17 03:06:43,0.00,0.49,0.00,24.74,28.18,31.18,14.48,43.68,1021.99,2029.00,3325.00,2994.01,3386.66,600.42,596.10,11.71,0000 0000 0000 0000 000000
2016-10-17 03:11:44,0.01,0.49,0.00,24.73,28.18,31.17,14.42,43.61,1021.99,2029.00,3324.81,2994.00,3386.15,600.31,595.94,11.76,0000 0000 0000 0000 000000
2016-10-17 03:16:45,0.01,0.49,0.00,24.72,28.18,31.18,14.43,43.73,1021.99,2029.00,3324.17,2993.97,3386.01,600.12,595.78,11.81,0000 0000 0000 0000 000000
2016-10-17 03:21:47,0.00,0.49,0.00,24.69,28.18,31.19,14.36,43.57,1021.99,2029.00,3324.04,2993.95,3386.00,599.95,595.68,11.86,0000 0000 0000 0000 000000
2016-10-17 03:26:48,0.01,0.49,0.00,24.69,28.18,31.18,14.47,43.59,1021.99,2029.00,3324.01,2993.61,3385.98,600.20,595.94,11.91,0000 0000 0000 0000 000000
2016-10-17 03:31:50,0.01,0.49,0.00,24.70,28.18,31.18,14.39,43.58,1021.99,2028.99,3324.00,2993.18,3385.88,599.98,595.68,11.96,0000 0000 0000 0000 000000
2016-10-17 03:36:51,0.00,0.49,0.00,24.67,28.18,31.17,14.42,43.59,1021.99,2028.99,3323.99,2993.07,3385.64,599.71,595.53,12.01,0000 0000 0000 0000 000000
2016-10-17 03:41:52,0.01,0.50,0.00,24.65,28.18,31.18,14.40,43.56,1021.99,2028.99,3323.94,2993.02,3385.28,600.37,596.28,12.06,0000 0000 0000 0000 000000
2016-10-17 03:46:54,0.01,0.50,0.00,24.72,28.18,31.19,14.45,43.58,1021.99,2028.99,3323.38,2993.00,3385.01,600.09,595.74,12.11,0000 0000 0000 0000 000000
2016-10-17 03:51:55,0.00,0.50,0.00,24.70,28.19,31.17,14.37,43.51,1021.99,2028.99,3323.10,2993.00,3385.00,600.19,595.90,12.16,0000 0000 0000 0000 000000
2016-10-17 03:56:56,0.00,0.50,0.00,24.67,28.19,31.18,14.44,43.56,1021.99,2028.99,3323.03,2992.99,3385.00,600.16,595.97,12.21,0000 0000 0000 0000 000000
2016-10-17 04:01:58,0.00,0.50,0.00,24.64,28.19,31.17,14.41,43.38,1022.24,2028.97,3323.00,2992.96,3384.97,600.06,596.05,12.26,0000 0000 0000 0000 000000
2016-10-17 04:06:59,0.04,0.50,0.00,24.66,28.20,31.20,14.40,43.42,1022.48,2028.98,3322.55,2992.36,3384.50,600.15,596.35,12.31,0000 0000 0000 0000 000000
2016-10-17 04:12:00,0.02,0.50,0.00,24.66,28.20,31.19,14.45,43.45,1022.48,2028.97,3321.71,2991.96,3383.91,600.25,596.37,12.36,0000 0000 0000 0000 000000
2016-10-17 04:17:01,0.04,0.50,0.00,24.69,28.20,31.21,14.38,43.58,1022.48,2028.99,3321.01,2991.15,3383.09,600.29,596.39,12.41,0000 0000 0000 0000 000000
2016-10-17 04:22:02,0.01,0.50,0.00,24.72,28.20,31.21,14.49,43.45,1022.48,2028.98,3320.35,2990.99,3382.96,600.13,596.10,12.46,0000 0000 0000 0000 000000
2016-10-17 04:27:04,0.02,0.50,0.00,24.70,28.22,31.19,14.47,43.37,1022.49,2028.97,3320.00,2990.79,3382.43,600.03,596.12,12.51,0000 0000 0000 0000 000000
2016-10-17 04:32:05,0.02,0.50,0.00,24.68,28.22,31.22,14.44,43.55,1022.49,2028.96,3319.84,2990.12,3382.01,600.32,596.30,12.56,0000 0000 0000 0000 000000
2016-10-17 04:37:06,0.01,0.51,0.00,24.71,28.22,31.22,14.41,43.45,1022.48,2028.96,3319.16,2990.01,3382.00,600.18,596.22,12.61,0000 0000 0000 0000 000000
2016-10-17 04:42:08,0.01,0.51,0.00,24.74,28.25,31.23,14.43,43.52,1022.48,2028.97,3318.99,2989.98,3381.69,600.00,595.96,12.66,0000 0000 0000 0000 000000
2016-10-17 04:47:09,0.03,0.51,0.00,24.72,28.25,31.21,14.40,43.51,1022.49,2028.92,3318.29,2989.48,3381.04,600.04,596.18,12.71,0000 0000 0000 0000 000000
2016-10-17 04:52:09,0.03,0.51,0.00,24.72,28.25,31.23,14.45,43.56,1022.52,2028.83,3317.45,2988.76,3380.47,600.10,596.14,12.76,0000 0000 0000 0000 000000
2016-10-17 04:57:11,0.08,0.51,0.00,24.74,28.27,31.24,14.39,43.42,1022.57,2028.77,3315.70,2987.63,3379.14,599.89,595.97,12.81,0000 0000 0000 0000 000000
2016-10-17 05:02:12,0.08,0.52,0.00,24.71,28.27,31.24,14.44,43.51,1022.60,2028.67,3313.62,2986.24,3377.57,600.34,596.43,12.86,0000 0000 0000 0000 000000
2016-10-17 05:07:13,0.09,0.52,0.00,24.75,28.27,31.24,14.37,43.42,1022.66,2028.34,3311.24,2984.58,3375.75,600.08,596.22,12.91,0000 0000 0000 0000 000000
2016-10-17 05:12:14,0.05,0.52,0.00,24.73,28.28,31.27,14.47,43.49,1022.65,2028.12,3309.44,2983.32,3374.39,600.11,596.18,12.96,0000 0000 0000 0000 000000
2016-10-17 05:17:16,0.06,0.53,0.00,24.70,28.29,31.26,14.42,43.44,1022.64,2028.26,3308.55,2982.71,3373.67,599.87,596.02,13.01,0000 0000 0000 0000 000000
2016-10-17 05:22:17,0.00,0.53,0.00,24.62,28.30,31.26,14.35,43.49,1022.65,2028.19,3308.00,2982.04,3373.02,599.67,595.98,13.06,0000 0000 0000 0000 000000
2016-10-17 05:27:18,0.00,0.53,0.00,24.48,28.30,31.22,14.48,43.54,1022.63,2028.18,3307.97,2982.00,3373.00,600.08,596.81,13.11,0000 0000 0000 0000 000000
2016-10-17 05:32:19,0.00,0.53,0.00,24.56,28.31,31.23,14.41,43.46,1022.63,2028.14,3307.55,2981.98,3372.86,600.05,596.58,13.16,0000 0000 0000 0000 000000
2016-10-17 05:37:20,0.02,0.53,0.00,24.70,28.32,31.23,14.48,43.48,1022.81,2028.05,3307.08,2981.68,3372.24,600.08,596.30,13.21,0000 0000 0000 0000 000000
2016-10-17 05:42:22,0.01,0.53,0.00,24.66,28.35,31.28,14.42,43.69,1022.93,2028.00,3307.00,2981.05,3372.00,600.16,596.51,13.26,0000 0000 0000 0000 000000
2016-10-17 05:47:23,0.00,0.53,0.00,24.91,28.38,31.31,14.35,43.67,1022.86,2028.00,3306.84,2981.00,3371.86,599.98,595.88,13.31,0000 0000 0000 0000 000000
2016-10-17 05:52:24,0.04,0.53,0.00,24.90,28.42,31.33,14.35,43.61,1022.88,2027.99,3306.07,2980.59,3371.10,599.72,595.64,13.36,0000 0000 0000 0000 000000
2016-10-17 05:57:26,0.01,0.53,0.00,24.73,28.46,31.36,14.45,43.60,1022.90,2027.98,3305.89,2980.05,3370.91,600.10,596.37,13.41,0000 0000 0000 0000 000000
2016-10-17 06:02:27,0.02,0.54,0.00,24.81,28.49,31.43,14.47,43.48,1022.90,2027.93,3305.10,2979.96,3370.11,600.04,596.10,13.46,0000 0000 0000 0000 000000
2016-10-17 06:07:28,0.01,0.54,0.00,24.85,28.51,31.49,14.42,43.55,1022.85,2027.86,3305.00,2979.48,3370.00,599.76,595.68,13.51,0000 0000 0000 0000 000000
2016-10-17 06:12:30,-0.03,0.53,0.00,24.83,28.54,31.55,14.44,43.51,1022.91,2027.37,3304.81,2979.04,3369.74,599.89,596.04,13.56,0000 0000 0000 0000 000000
2016-10-17 06:17:31,-0.00,0.53,0.00,24.72,28.56,31.58,14.43,43.58,1022.93,2027.08,3304.19,2979.00,3369.10,600.01,596.33,13.61,0000 0000 0000 0000 000000
2016-10-17 06:22:32,-0.00,0.53,0.00,24.72,28.57,31.61,14.44,43.54,1022.93,2027.05,3304.01,2978.98,3369.00,599.94,596.22,13.66,0000 0000 0000 0000 000000
2016-10-17 06:27:34,0.00,0.53,0.00,24.82,28.57,31.65,14.45,43.51,1022.92,2027.06,3304.00,2978.89,3369.00,600.07,596.06,13.72,0000 0000 0000 0000 000000
2016-10-17 06:32:35,0.02,0.54,0.00,24.85,28.58,31.68,14.40,43.43,1022.90,2027.02,3303.96,2978.33,3368.92,600.26,596.26,13.77,0000 0000 0000 0000 000000
2016-10-17 06:37:36,0.03,0.54,0.00,24.81,28.59,31.71,14.44,43.47,1022.92,2027.02,3303.20,2978.01,3368.16,599.97,596.06,13.82,0000 0000 0000 0000 000000
2016-10-17 06:42:37,0.02,0.54,0.00,24.77,28.58,31.79,14.42,43.54,1022.91,2027.01,3302.72,2977.83,3367.95,599.37,595.46,13.87,0000 0000 0000 0000 000000
2016-10-17 06:47:39,0.04,0.54,0.00,24.79,28.57,31.77,14.43,43.51,1022.91,2027.01,3301.95,2977.06,3367.15,600.07,596.14,13.92,0000 0000 0000 0000 000000
2016-10-17 06:52:40,0.02,0.54,0.00,24.80,28.57,31.73,14.46,43.49,1022.89,2027.03,3301.18,2976.88,3366.90,600.07,596.02,13.97,0000 0000 0000 0000 000000
2016-10-17 06:57:41,0.04,0.54,0.00,24.80,28.56,31.65,14.41,43.41,1022.91,2027.02,3300.60,2976.13,3366.07,599.78,595.88,14.02,0000 0000 0000 0000 000000
2016-10-17 07:02:43,0.02,0.54,0.00,24.74,28.55,31.70,14.42,43.42,1022.91,2027.01,3299.89,2975.84,3365.65,599.95,596.17,14.07,0000 0000 0000 0000 000000
2016-10-17 07:07:44,0.04,0.55,0.00,24.74,28.54,31.73,14.41,43.52,1022.94,2027.02,3299.01,2975.05,3364.98,599.95,596.24,14.12,0000 0000 0000 0000 000000
2016-10-17 07:12:45,0.05,0.55,0.00,24.79,28.52,31.69,14.43,43.50,1022.93,2027.02,3298.08,2974.38,3364.14,599.86,596.05,14.17,0000 0000 0000 0000 000000
2016-10-17 07:17:47,0.03,0.55,0.00,24.83,28.51,31.64,14.41,43.38,1022.93,2027.11,3297.22,2974.00,3363.67,599.87,595.97,14.22,0000 0000 0000 0000 000000
2016-10-17 07:22:48,0.07,0.55,0.00,24.77,28.50,31.64,14.46,43.50,1022.94,2027.27,3296.32,2973.34,3362.99,600.05,596.13,14.27,0000 0000 0000 0000 000000
2016-10-17 07:27:49,0.05,0.56,0.00,24.73,28.48,31.63,14.42,43.34,1022.91,2027.35,3295.34,2972.77,3362.23,600.05,596.42,14.32,0000 0000 0000 0000 000000
2016-10-17 07:32:51,0.06,0.56,0.00,24.78,28.47,31.62,14.47,43.50,1022.87,2027.52,3294.26,2972.04,3361.43,599.95,596.05,14.37,0000 0000 0000 0000 000000
2016-10-17 07:37:52,0.06,0.56,0.00,24.81,28.45,31.53,14.42,43.38,1022.89,2027.84,3293.54,2971.68,3360.99,600.03,596.09,14.42,0000 0000 0000 0000 000000
2016-10-17 07:42:54,0.04,0.57,0.00,24.83,28.45,31.53,14.32,43.45,1022.85,2027.93,3292.63,2970.96,3360.34,599.70,595.70,14.47,0000 0000 0000 0000 000000
2016-10-17 07:47:55,0.05,0.57,0.00,24.74,28.43,31.51,14.52,43.42,1022.89,2027.85,3291.41,2970.09,3359.28,600.09,596.22,14.52,0000 0000 0000 0000 000000
2016-10-17 07:52:56,0.06,0.57,0.00,24.70,28.42,31.57,14.39,43.45,1022.88,2027.91,3290.15,2969.24,3358.42,600.14,596.43,14.57,0000 0000 0000 0000 000000
2016-10-17 07:57:58,0.02,0.57,0.00,24.77,28.40,31.54,14.46,43.42,1022.87,2027.94,3289.26,2968.93,3357.93,599.92,596.08,14.62,0000 0000 0000 0000 000000
2016-10-17 08:02:59,0.05,0.58,0.00,24.81,28.40,31.49,14.53,43.46,1022.93,2027.96,3288.35,2968.15,3357.13,600.28,596.15,14.67,0000 0000 0000 0000 000000
2016-10-17 08:08:00,0.06,0.58,0.00,24.80,28.39,31.42,14.38,43.35,1022.94,2027.98,3287.14,2967.43,3356.27,599.98,596.11,14.72,0000 0000 0000 0000 000000
2016-10-17 08:13:01,0.03,0.58,0.00,24.75,28.37,31.41,14.47,43.46,1022.93,2027.99,3286.09,2966.90,3355.60,600.00,596.19,14.77,0000 0000 0000 0000 000000
2016-10-17 08:18:02,0.03,0.58,0.00,24.75,28.37,31.51,14.40,43.48,1022.91,2027.99,3285.67,2966.23,3355.02,599.81,596.01,14.82,0000 0000 0000 0000 000000
2016-10-17 08:23:04,0.01,0.58,0.00,24.78,28.36,31.49,14.40,43.48,1022.92,2027.99,3285.22,2966.04,3354.99,599.93,596.07,14.87,0000 0000 0000 0000 000000
2016-10-17 08:28:05,0.01,0.58,0.00,24.79,28.35,31.38,14.36,43.36,1022.90,2027.98,3284.98,2965.99,3354.64,599.79,595.92,14.92,0000 0000 0000 0000 000000
2016-10-17 08:33:07,0.03,0.58,0.00,24.75,28.34,31.45,14.41,43.42,1022.92,2027.96,3284.31,2965.72,3354.04,599.89,596.11,14.97,0000 0000 0000 0000 000000
2016-10-17 08:38:08,0.02,0.59,0.00,24.74,28.32,31.49,14.41,43.42,1022.89,2027.98,3283.80,2965.09,3353.95,599.88,596.09,15.02,0000 0000 0000 0000 000000
2016-10-17 08:43:09,0.02,0.59,0.00,24.75,28.32,31.34,14.44,43.43,1022.90,2027.98,3283.06,2964.97,3353.30,600.09,596.22,15.07,0000 0000 0000 0000 000000
2016-10-17 08:48:10,0.04,0.59,0.00,24.78,28.30,31.30,14.51,43.47,1022.94,2027.98,3282.29,2964.27,3353.00,600.19,596.36,15.12,0000 0000 0000 0000 000000
2016-10-17 08:53:11,0.01,0.59,0.00,24.74,28.30,31.28,14.43,43.52,1022.96,2027.97,3281.89,2964.01,3352.47,600.07,596.31,15.17,0000 0000 0000 0000 000000
2016-10-17 08:58:13,0.02,0.59,0.00,24.73,28.28,31.33,14.44,43.54,1022.95,2027.99,3281.12,2963.98,3352.02,600.16,596.44,15.22,0000 0000 0000 0000 000000
2016-10-17 09:03:14,0.00,0.59,0.00,24.78,28.27,31.32,14.38,43.48,1022.96,2027.99,3281.01,2963.96,3352.00,599.89,596.09,15.27,0000 0000 0000 0000 000000
2016-10-17 09:08:16,0.05,0.59,0.00,24.76,28.27,31.24,14.47,43.55,1022.96,2027.99,3280.43,2963.20,3351.51,599.91,596.08,15.32,0000 0000 0000 0000 000000
2016-10-17 09:13:17,0.07,0.60,0.00,24.81,28.25,31.23,14.44,43.54,1022.96,2027.99,3278.80,2962.08,3350.26,600.08,596.22,15.37,0000 0000 0000 0000 000000
2016-10-17 09:18:18,0.06,0.60,0.00,24.74,28.25,31.25,14.49,43.54,1022.96,2027.99,3277.41,2961.11,3349.17,600.19,596.36,15.42,0000 0000 0000 0000 000000
2016-10-17 09:23:19,0.05,0.60,0.00,24.72,28.23,31.30,14.39,43.59,1022.96,2027.99,3276.36,2960.42,3348.47,600.06,596.32,15.47,0000 0000 0000 0000 000000
2016-10-17 09:28:20,0.01,0.61,0.00,24.76,28.22,31.31,14.34,44.27,1022.96,2027.99,3275.77,2960.00,3348.00,599.88,596.01,15.52,0000 0000 0000 0000 000000
2016-10-17 09:33:21,0.03,0.61,0.00,24.80,28.21,31.22,14.50,43.54,1022.96,2027.99,3275.04,2959.76,3347.54,600.09,596.16,15.57,0000 0000 0000 0000 000000
2016-10-17 09:38:23,0.03,0.61,0.00,24.78,28.20,31.18,14.37,43.48,1022.96,2027.99,3274.58,2959.09,3347.02,599.95,596.02,15.62,0000 0000 0000 0000 000000
2016-10-17 09:43:24,0.02,0.61,0.00,24.73,28.20,31.18,14.42,43.34,1022.96,2027.99,3273.87,2958.90,3346.57,599.91,596.16,15.67,0000 0000 0000 0000 000000
2016-10-17 09:48:25,0.03,0.61,0.00,24.72,28.20,31.23,14.46,43.32,1022.96,2027.99,3273.08,2958.20,3346.04,599.99,596.17,15.72,0000 0000 0000 0000 000000
2016-10-17 09:53:27,0.00,0.61,0.00,24.76,28.17,31.17,14.39,43.44,1022.97,2027.99,3273.00,2958.03,3346.00,599.98,596.20,15.77,0000 0000 0000 0000 000000
2016-10-17 09:58:28,0.00,0.61,0.00,24.81,28.17,31.15,14.34,43.37,1022.98,2028.00,3272.97,2958.00,3345.97,600.09,596.26,15.82,0000 0000 0000 0000 000000
2016-10-17 10:03:29,0.01,0.61,0.00,24.73,28.17,31.16,14.39,43.43,1022.98,2028.00,3272.78,2958.00,3345.80,599.75,596.03,15.87,0000 0000 0000 0000 000000
2016-10-17 10:08:30,0.02,0.61,0.00,24.71,28.17,31.16,14.39,43.33,1022.98,2028.00,3272.14,2957.98,3345.43,599.76,596.17,15.93,0000 0000 0000 0000 000000
2016-10-17 10:13:31,0.00,0.61,0.00,24.69,28.17,31.16,14.43,43.25,1022.99,2028.00,3272.00,2957.95,3345.06,600.08,596.46,15.98,0000 0000 0000 0000 000000
2016-10-17 10:18:32,0.00,0.61,0.00,24.66,28.16,31.17,14.43,43.46,1023.05,2028.02,3272.00,2957.91,3345.03,600.13,596.61,16.03,0000 0000 0000 0000 000000
2016-10-17 10:23:33,0.01,0.61,0.00,24.73,28.15,31.15,14.41,43.36,1023.15,2028.02,3271.98,2957.60,3345.00,599.98,596.37,16.08,0000 0000 0000 0000 000000
2016-10-17 10:28:35,0.01,0.61,0.00,24.74,28.15,31.13,14.42,43.37,1023.33,2028.02,3271.74,2957.21,3345.00,600.36,596.87,16.13,0000 0000 0000 0000 000000
2016-10-17 10:33:36,0.01,0.62,0.00,24.71,28.15,31.12,14.41,43.39,1023.40,2028.01,3271.07,2957.01,3344.96,599.75,596.31,16.18,0000 0000 0000 0000 000000
2016-10-17 10:38:37,0.01,0.62,0.00,24.72,28.15,31.12,14.41,43.40,1023.43,2028.03,3271.00,2957.00,3344.62,599.64,596.23,16.23,0000 0000 0000 0000 000000
2016-10-17 10:43:38,0.00,0.62,0.00,24.71,28.15,31.13,14.39,43.48,1023.42,2028.04,3270.98,2957.00,3344.29,599.73,596.34,16.28,0000 0000 0000 0000 000000
2016-10-17 10:48:39,0.01,0.62,0.00,24.69,28.15,31.10,14.39,43.59,1023.44,2028.06,3270.83,2956.96,3344.02,599.89,596.54,16.33,0000 0000 0000 0000 000000
2016-10-17 10:53:40,0.02,0.62,0.00,24.69,28.16,31.11,14.50,43.52,1023.44,2028.08,3270.33,2956.76,3344.00,600.28,596.82,16.38,0000 0000 0000 0000 000000
2016-10-17 10:58:41,0.01,0.62,0.00,24.67,28.17,31.12,14.37,43.61,1023.45,2028.09,3270.03,2956.20,3343.99,599.50,596.17,16.43,0000 0000 0000 0000 000000
2016-10-17 11:03:42,0.00,0.62,0.00,24.70,28.17,31.15,14.43,43.73,1023.45,2028.08,3270.00,2956.06,3343.91,600.28,597.02,16.48,0000 0000 0000 0000 000000
2016-10-17 11:08:43,0.01,0.62,0.00,24.71,28.17,31.13,14.42,44.17,1023.45,2028.03,3269.93,2956.00,3343.27,600.05,596.69,16.53,0000 0000 0000 0000 000000
2016-10-17 11:13:45,0.01,0.62,0.00,24.72,28.17,31.13,14.43,43.68,1023.45,2028.08,3269.88,2956.00,3343.06,600.15,596.70,16.58,0000 0000 0000 0000 000000
2016-10-17 11:18:46,0.01,0.62,0.00,24.70,28.17,31.14,14.42,43.67,1023.45,2028.09,3269.46,2955.98,3343.01,599.96,596.58,16.63,0000 0000 0000 0000 000000
2016-10-17 11:23:47,0.00,0.62,0.00,24.68,28.19,31.12,14.43,43.57,1023.45,2028.05,3269.02,2955.93,3343.00,599.94,596.61,16.68,0000 0000 0000 0000 000000
2016-10-17 11:28:48,0.01,0.62,0.00,24.70,28.20,31.15,14.38,43.48,1023.45,2028.06,3269.00,2955.50,3342.94,599.74,596.35,16.73,0000 0000 0000 0000 000000
2016-10-17 11:33:50,0.01,0.62,0.00,24.75,28.20,31.16,14.39,43.52,1023.45,2028.04,3268.95,2955.05,3342.36,599.96,596.54,16.78,0000 0000 0000 0000 000000
2016-10-17 11:38:51,0.00,0.62,0.00,24.73,28.22,31.18,14.47,43.59,1023.45,2028.03,3268.65,2955.00,3342.04,599.94,596.48,16.83,0000 0000 0000 0000 000000
2016-10-17 11:43:52,0.00,0.62,0.00,24.71,28.22,31.17,14.42,43.55,1023.45,2028.01,3268.10,2955.00,3342.00,599.85,596.46,16.88,0000 0000 0000 0000 000000
2016-10-17 11:48:53,0.00,0.62,0.00,24.73,28.22,31.18,14.48,43.53,1023.45,2028.05,3268.03,2954.98,3342.00,600.27,596.86,16.93,0000 0000 0000 0000 000000
2016-10-17 11:53:54,0.01,0.62,0.00,24.74,28.24,31.18,14.42,43.63,1023.45,2028.01,3267.99,2954.73,3341.90,599.68,596.22,16.98,0000 0000 0000 0000 000000
2016-10-17 11:58:55,0.02,0.63,0.00,24.73,28.25,31.17,14.48,43.75,1023.45,2028.01,3267.89,2954.22,3341.36,600.11,596.69,17.03,0000 0000 0000 0000 000000
2016-10-17 12:03:57,0.01,0.63,0.00,24.67,28.25,31.20,14.41,43.75,1023.45,2028.01,3267.37,2954.01,3341.03,599.94,596.80,17.08,0000 0000 0000 0000 000000
2016-10-17 12:08:58,0.00,0.63,0.00,24.73,28.27,31.20,14.45,43.66,1023.45,2028.00,3267.01,2954.00,3341.00,599.79,596.35,17.13,0000 0000 0000 0000 000000
2016-10-17 12:13:59,0.00,0.63,0.00,24.76,28.27,31.19,14.40,43.72,1023.45,2028.00,3267.00,2954.00,3341.00,599.75,596.36,17.18,0000 0000 0000 0000 000000
2016-10-17 12:19:01,0.00,0.63,0.00,24.75,28.27,31.21,14.33,43.66,1023.45,2028.00,3267.00,2953.96,3340.86,599.90,596.43,17.23,0000 0000 0000 0000 000000
2016-10-17 12:24:02,0.01,0.63,0.00,24.75,28.29,31.19,14.46,43.61,1023.45,2028.00,3266.97,2953.79,3340.37,600.14,596.65,17.28,0000 0000 0000 0000 000000
2016-10-17 12:29:03,0.02,0.63,0.00,24.71,28.30,31.22,14.38,43.67,1023.45,2028.00,3266.52,2953.17,3340.03,599.76,596.39,17.33,0000 0000 0000 0000 000000
2016-10-17 12:34:05,0.00,0.63,0.00,24.73,28.30,31.23,14.47,43.69,1023.45,2028.00,3266.03,2953.00,3340.00,599.79,596.30,17.38,0000 0000 0000 0000 000000
2016-10-17 12:39:06,0.00,0.63,0.00,24.78,28.32,31.23,14.44,43.73,1023.45,2027.99,3266.00,2953.00,3339.98,600.13,596.60,17.43,0000 0000 0000 0000 000000
2016-10-17 12:44:07,0.00,0.63,0.00,24.73,28.32,31.22,14.44,43.74,1023.45,2027.99,3265.99,2953.00,3339.80,600.27,596.78,17.48,0000 0000 0000 0000 000000
2016-10-17 12:49:08,0.01,0.63,0.00,24.77,28.32,31.28,14.47,43.71,1023.45,2027.99,3265.97,2952.97,3339.35,600.11,596.53,17.53,0000 0000 0000 0000 000000
2016-10-17 12:54:09,0.01,0.63,0.00,24.77,28.32,31.24,14.43,43.73,1023.45,2027.99,3265.72,2952.80,3339.08,600.11,596.63,17.58,0000 0000 0000 0000 000000